Погода в Бойкове

Россия / Тверская область     56°26′09″N   35°02′55″E
темп.,
°C
ветер,
м/с
пор.,
м/с
влажн.,
%
обл.,
%
осадки,
мм/ч
давл.,
гПа
погр.,
м
21 января, пт
пт2100:00−2ююз61292100 0.3 996814
03:00−2ю51291100 0.4 996677
06:00−5ююв3994100 0.0 995270
09:00−5юв41096100 0.1 995305
12:00−3ююв489598 0.6 994616
15:00−4юв37895 0.7 994320
18:00−9вюв399497 0.0 995160
21:00−8вюв3796100 0.1 996183
22 января, сб
сб2200:00−8в3796100 0.3 998253
03:00−8всв3796100 0.7 999257
06:00−9св369789 0.3 1001192
09:00−9св369796 0.4 1003165
12:00−7всв359399 0.2 1006328
15:00−6всв359488 0.4 1008364
18:00−9ссв2597100 0.2 101191
21:00−10св129879 0.3 101337
23 января, вс
вс2300:00−9св259787 0.1 1016120
03:00−10св269799 0.3 1019115
06:00−12св249994 0.1 102273
09:00−16ссв22100100 0.1 102633
12:00−11св239696 0.0 1028135
15:00−9ссв239583 0.1 1030151
18:00−15ссв2210086 0.0 10339
21:00−17св11100100 0.0 10359
24 января, пн
пн2400:00−19ссв11100100 0.0 103610
03:00−20св1110098 0.1 10389
06:00−20с2210096 0.0 103720
09:00−21в1110098 0.0 103710
12:00−13вюв119690 0.0 103794
15:00−10в119419 0.0 103574
18:00−17вюв0010068 0.0 10349
21:00−19ююв1110094 0.0 103310
25 января, вт
вт2500:00−20юз11100100 0.0 103210
03:00−19ююз2210094 0.0 103014
06:00−19ююз22100100 0.0 102733
09:00−18ююз24100100 0.1 102658
12:00−12ю249585 0.0 1024146
15:00−9ююв249428 0.0 1022197
18:00−16ююв2210080 0.0 102214
21:00−18ю2210097 0.0 102316